TimeEST,TemperatureF,Dew PointF,Humidity,Sea Level PressureIn,VisibilityMPH,Wind Direction,Wind SpeedMPH,Gust SpeedMPH,PrecipitationIn,Events,Conditions,WindDirDegrees,DateUTC
12:53 AM,37.0,32.0,82,30.19,10.0,Calm,Calm,-,N/A,,Scattered Clouds,0,2012-11-20 05:53:00
1:53 AM,36.0,33.1,89,30.17,9.0,Calm,Calm,-,N/A,,Mostly Cloudy,0,2012-11-20 06:53:00
2:53 AM,37.9,34.0,86,30.17,8.0,Calm,Calm,-,N/A,,Mostly Cloudy,0,2012-11-20 07:53:00
3:53 AM,39.0,35.1,86,30.15,6.0,Calm,Calm,-,N/A,,Mostly Cloudy,0,2012-11-20 08:53:00
4:53 AM,37.9,35.1,89,30.15,6.0,Calm,Calm,-,N/A,,Mostly Cloudy,0,2012-11-20 09:53:00
5:53 AM,37.9,35.1,89,30.16,6.0,Calm,Calm,-,N/A,,Mostly Cloudy,0,2012-11-20 10:53:00
6:53 AM,37.9,35.1,89,30.15,4.0,Calm,Calm,-,N/A,,Mostly Cloudy,0,2012-11-20 11:53:00
7:53 AM,37.0,35.1,93,30.15,3.0,Calm,Calm,-,N/A,,Mostly Cloudy,0,2012-11-20 12:53:00
8:10 AM,35.6,33.8,93,30.13,2.5,Calm,Calm,-,N/A,,Mostly Cloudy,0,2012-11-20 13:10:00
8:34 AM,37.4,35.6,93,30.14,3.0,Calm,Calm,-,N/A,,Mostly Cloudy,0,2012-11-20 13:34:00
8:53 AM,39.9,37.9,93,30.16,2.5,Calm,Calm,-,N/A,,Overcast,0,2012-11-20 13:53:00
9:27 AM,42.8,39.2,87,30.14,3.0,Calm,Calm,-,N/A,,Overcast,0,2012-11-20 14:27:00
9:53 AM,44.1,39.0,82,30.15,3.0,Calm,Calm,-,N/A,,Haze,0,2012-11-20 14:53:00
10:53 AM,48.0,39.0,71,30.15,7.0,Calm,Calm,-,N/A,,Overcast,0,2012-11-20 15:53:00
11:53 AM,48.9,39.0,69,30.14,7.0,Calm,Calm,-,N/A,,Overcast,0,2012-11-20 16:53:00
12:53 PM,52.0,37.9,59,30.11,8.0,Calm,Calm,-,N/A,,Overcast,0,2012-11-20 17:53:00
1:53 PM,55.0,37.0,51,30.10,8.0,Calm,Calm,-,N/A,,Overcast,0,2012-11-20 18:53:00
2:53 PM,55.9,36.0,47,30.09,10.0,South,4.6,-,N/A,,Overcast,190,2012-11-20 19:53:00
3:53 PM,54.0,37.0,53,30.10,10.0,South,3.5,-,N/A,,Overcast,190,2012-11-20 20:53:00
4:53 PM,51.1,41.0,68,30.11,8.0,NE,3.5,-,0.00,Rain,Light Rain,40,2012-11-20 21:53:00
5:53 PM,51.1,42.1,71,30.13,8.0,Calm,Calm,-,0.00,,Overcast,0,2012-11-20 22:53:00
6:53 PM,48.0,44.1,86,30.15,7.0,Calm,Calm,-,N/A,,Overcast,0,2012-11-20 23:53:00
7:53 PM,48.0,42.1,80,30.16,7.0,Calm,Calm,-,N/A,,Overcast,0,2012-11-21 00:53:00
8:53 PM,44.1,41.0,89,30.16,6.0,Calm,Calm,-,N/A,,Overcast,0,2012-11-21 01:53:00
9:53 PM,42.1,41.0,96,30.16,3.0,Calm,Calm,-,N/A,,Partly Cloudy,0,2012-11-21 02:53:00
10:08 PM,41.0,39.2,93,30.14,2.5,Calm,Calm,-,N/A,,Clear,0,2012-11-21 03:08:00
10:11 PM,39.2,39.2,100,30.14,0.8,Calm,Calm,-,N/A,,Clear,0,2012-11-21 03:11:00
10:29 PM,37.4,37.4,100,30.14,1.2,WNW,3.5,-,N/A,,Partly Cloudy,290,2012-11-21 03:29:00
10:34 PM,39.2,39.2,100,30.14,2.0,Calm,Calm,-,N/A,,Partly Cloudy,0,2012-11-21 03:34:00
10:41 PM,35.6,35.6,100,30.14,1.0,Calm,Calm,-,N/A,,Partly Cloudy,0,2012-11-21 03:41:00
10:48 PM,35.6,33.8,93,30.14,0.2,Calm,Calm,-,N/A,Fog,Fog,0,2012-11-21 03:48:00
10:53 PM,37.0,36.0,96,30.16,0.2,West,3.5,-,N/A,Fog,Fog,280,2012-11-21 03:53:00
11:37 PM,35.6,35.6,100,30.15,1.0,Calm,Calm,-,N/A,,Mostly Cloudy,0,2012-11-21 04:37:00
11:51 PM,35.6,35.6,100,30.15,1.8,Calm,Calm,-,N/A,,Overcast,0,2012-11-21 04:51:00
11:53 PM,37.0,36.0,96,30.17,1.8,Calm,Calm,-,N/A,,Overcast,0,2012-11-21 04:53:00